sat.trackr.live / text

‹ back to catalog

STARLINK-32135

NORAD 60277 · 2024-131Y

PAYLOAD ACTIVE UNKNOWN

§ Identity

Operator
Country
US
Launch date
2024-07-27
Launch site
AFETR
Launch vehicle
Mass (kg)
RCS (m²)

Purposes: comms

External: N2YO · Heavens-Above · Gunter

§ Orbital elements

Epoch: 2026-09-21T14:15:25.808544Z

Period
93.85 min
Inclination
53.1565°
Eccentricity
0.0001782
Mean motion
15.34386286 rev/d
Perigee alt
461.5 km
Apogee alt
464.0 km
Semi-major
6,840.9 km
B*
-2.7279e-5
RAAN
220.2592°
Arg perigee
90.2633°
Mean anomaly
269.8574°
Rev number
12,174

§ Raw data

STARLINK-321351 60277U 24131Y   26264.59404871 -.00001298  00000+0 -27279-4 0  99932 60277  53.1565 220.2592 0001782  90.2633 269.8574 15.34386286121744

JSON: /api/v1/satellites/60277 · /tle

For live sub-satellite position, see the globe view (requires WebGL).

§ Visibility from observer

Set your observer location to see the next 7 days of passes ≥ 10°. The values pass through the URL so the page stays shareable.

No JS? Fill the form by hand. The geolocation button needs JavaScript.